DELTA 1 DEB *, 9703

Orbit data source: Space-Track

DELTA 1 DEB *, 9703 is space debris in LEO originally from a launch on Tue, 06 Nov 1973 UTC launched from the Air Force Western Test Range (AFWTR). Debris objects in space refer to the collection of defunct objects orbiting the Earth. Examples of debris include non-operational satellites, rocket bodies, and fragments generated from explosions, collisions, or faulty payload assembly.

Loading next visibility...
Identifier
9703, 1973-086GB
Orbit
LEO
Country
Flag of USUS
Related business
Manufacturer
Unknown
Mission
Spacecraft
Bus & Motor
Unknown
Mass
Unknown
Launch date (UTC)
1973-11-06 (53 years ago)
Launch vehicle
Unknown
Launch site
Air Force Western Test Range (AFWTR)
Object type
Payload
Rocket body
Debris
Shape & HBR
Unknown shape, 0.1 m
Radar Cross Section
Medium (>0.1 m² and <1 m²)

Expand to show TLE details & history
Last TLE update: 2 days ago

TLE from 2 days ago
0 DELTA 1 DEB *
1  9703U 73086GB  26261.91810139  .00000071  00000-0  16762-3 0  9995
2  9703  65.7203  73.7519 0130606 200.8379 311.6166 13.67802645596827
Epoch: 2026-09-18T22:02Z
TLE epoch observation values (Epoch: 2026-09-18T22:02:03.960Z)
Latitude
25.98908°
Longitude
-87.23466°
Altitude
946.338 km
Speed
7.413 km/s
True Right ascension
16h 04m 27s
True Declination
25° 51' 27"
Sunlit
Object was in daylight at epoch
Visualization orbit readout
Latitude
Unknown
Longitude
Unknown
Altitude
Unknown
Speed
Unknown
Apparent Right ascension
Unknown
Apparent Declination
Unknown
Sunlit
N/A
Visualization observer readout
Local Sidereal Time
11:57:49
Azimuth
Unknown
Elevation
Unknown
Doppler factor
Unknown
Orbital elements
Apogee altitude
1,102.447 km
Perigee altitude
909.564 km
Semi-major axis
7,384.143 km
Eccentricity
0.01306
Inclination
65.7203°
RAAN
73.7519°
Arg. of periapsis
200.8379°
True anomaly
310.48552°
Mean anomaly
311.6166°
Eccentric anomaly
311.05229°
Mean motion
3.42053 °/min
Orbital period
105.25 mins
BSTAR
0.00016762
Loading maneuver chart data...
Computing Atmospheric mass density...
Loading historical data...
Loading historical data...
Loading historical data...
Loading historical data...
Loading historical data...
Loading historical data...
Loading historical data...

Documentation

Showing up to 5 results
|